Hourly Data Report for July 29, 2006

TORONTO CITY
ONTARIO

43°40'00.000" N
79°24'00.000" W
112.50 m
6158355
71508
XTO

Download Data

Hourly Data (July 2006)
Hourly Data Report for July 29, 2006
TIME
LST
Temp Definition
°C
Dew Point Definition
°C
Rel Hum Definition
%
Precip. Amount Definition
mm

Wind Dir Definition
10's deg

Wind Spd Definition
km/h
Visibility Definition
km
Stn Press Definition
kPa
Hmdx Definition


Wind Chill Definition


Weather Definition


00:00 23.1 21.0 88   LegendMM LegendMM   99.89 32   LegendNANA
01:00 22.7 20.9 90   LegendMM LegendMM   99.85 31   LegendNANA
02:00 22.2 20.8 92   LegendMM LegendMM   99.84 30   LegendNANA
03:00 22.6 20.9 90   LegendMM LegendMM   99.84 31   LegendNANA
04:00 22.0 20.6 92   LegendMM LegendMM   99.84 30   LegendNANA
05:00 23.4 21.6 90   LegendMM LegendMM   99.85 32   LegendNANA
06:00 22.4 21.3 94   LegendMM LegendMM   99.83 31   LegendNANA
07:00 23.7 22.2 91   LegendMM LegendMM   99.81 33   LegendNANA
08:00 24.2 22.2 89   LegendMM LegendMM   99.78 34   LegendNANA
09:00 26.0 23.5 86   LegendMM LegendMM   99.78 37   LegendNANA
10:00 28.8 23.0 71   LegendMM LegendMM   99.82 39   LegendNANA
11:00 29.9 23.6 69   LegendMM LegendMM   99.78 41   LegendNANA
12:00 30.2 24.7 72   LegendMM LegendMM   99.72 42   LegendNANA
13:00 30.5 23.5 66   LegendMM LegendMM   99.63 41   LegendNANA
14:00 30.4 23.3 66   LegendMM LegendMM   99.58 41   LegendNANA
15:00 32.1 22.6 57   LegendMM LegendMM   99.59 42   LegendNANA
16:00 25.9 22.0 79   LegendMM LegendMM   99.69 35   LegendNANA
17:00 25.8 22.2 81   LegendMM LegendMM   99.64 35   LegendNANA
18:00 23.6 21.3 87   LegendMM LegendMM   99.61 32   LegendNANA
19:00 23.6 20.9 85   LegendMM LegendMM   99.67 32   LegendNANA
20:00 23.1 21.1 89   LegendMM LegendMM   99.69 32   LegendNANA
21:00 22.9 21.3 91   LegendMM LegendMM   99.69 32   LegendNANA
22:00 23.2 21.6 91   LegendMM LegendMM   99.72 32   LegendNANA
23:00 22.7 20.6 88   LegendMM LegendMM   99.76 31   LegendNANA

Notes on Data Quality.

Legend

  • E = Estimated
  • M = Missing
  • NA = Not Available*
  • [empty] = Indicates an unobserved value
Date modified: